Hourly Data Report for September 22, 2017

All times are specified in Local Standard Time (LST). Add 1 hour to adjust for Daylight Saving Time where and when it is observed.

ALGONQUIN PARK EAST GATE
ONTARIO

45°32'00.000" N
78°16'00.000" W
397.00 m
6080192
71581
TNK

Download Data

Hourly Data (September 2017)
Hourly Data Report for September 22, 2017
Temp Definition
°C
Dew Point Temp Definition
°C
Rel Hum Definition
%
Wind Dir Definition
10's deg

Wind Spd Definition
km/h
Visibility Definition
km
Stn Press Definition
kPa
Hmdx Definition


Wind Chill Definition


Weather Definition


TIME
00:00 15.1 13.7 92   0   97.44     LegendNANA
01:00 15.0 13.6 92   0   97.43     LegendNANA
02:00 14.9 13.5 92   0   97.41     LegendNANA
03:00 14.5 13.2 92   0   97.42     LegendNANA
04:00 14.5 13.2 92   0   97.44     LegendNANA
05:00 13.6 12.4 93   0   97.47     LegendNANA
06:00 13.3 12.1 93 0 1   97.50     LegendNANA
07:00 13.9 12.7 93   0   97.49     LegendNANA
08:00 16.7 14.8 89   0   97.50     LegendNANA
09:00 20.5 15.1 71 19 2   97.50 25   LegendNANA
10:00 23.2 15.7 63 23 4   97.48 28   LegendNANA
11:00 24.7 16.4 60 21 3   97.45 30   LegendNANA
12:00 26.0 15.8 53 20 6   97.41 30   LegendNANA
13:00 26.9 15.0 48 22 3   97.35 31   LegendNANA
14:00 27.4 14.4 45 18 5   97.28 31   LegendNANA
15:00 27.0 15.0 48 26 6   97.22 31   LegendNANA
16:00 26.4 15.2 50 23 5   97.18 30   LegendNANA
17:00 24.7 17.1 62 22 3   97.20 30   LegendNANA
18:00 21.5 17.4 77 0 1   97.20 27   LegendNANA
19:00 19.8 17.0 84 11 2   97.23     LegendNANA
20:00 18.6 16.3 87   0   97.21     LegendNANA
21:00 17.2 15.3 89   0   97.22     LegendNANA
22:00 16.8 15.1 90   0   97.22     LegendNANA
23:00 16.3 14.6 90   0   97.19     LegendNANA

Notes on Data Quality.

Legend

  • E = Estimated
  • M = Missing
  • NA = Not Available
  • ‡ = Partner data that is not subject to review by the National Climate Archives
Date modified: